WA0GMH-1 Weather Reports


Display with metric or nautical units.
time (UTC)temp
F
wind
direction
speed
MPH
gust
MPH
rain 1hr
in
rain 24hr
in
rain mn
in
humidity
%
barometer
mb
20181019030426 59 270 0.0 0.0 0.00 0.00 0.00 64 1017.8
20181019025745 59 270 0.0 0.0 0.00 0.00 0.00 64 1018.0
20181019025102 59 270 0.0 0.0 0.00 0.00 0.00 63 1018.1
20181019024420 59 270 0.0 0.0 0.00 0.00 0.00 64 1018.2
20181019023737 59 270 0.0 0.0 0.00 0.00 0.00 63 1018.4
20181019023055 59 270 0.0 0.0 0.00 0.00 0.00 63 1018.4
20181019022413 59 270 0.0 0.0 0.00 0.00 0.00 63 1018.4
20181019021732 59 270 0.0 0.0 0.00 0.00 0.00 63 1018.6
20181019021048 59 270 0.0 0.0 0.00 0.00 0.00 63 1018.6
20181019020406 59 270 0.0 0.0 0.00 0.00 0.00 63 1018.7
20181019015724 59 270 0.0 0.0 0.00 0.00 0.00 63 1018.7
20181019015042 59 270 0.0 0.0 0.00 0.00 0.00 63 1018.6
20181019014359 59 270 0.0 0.0 0.00 0.00 0.00 63 1018.8
20181019013717 59 270 0.0 0.0 0.00 0.00 0.00 63 1018.7
20181019013035 59 270 0.0 0.0 0.00 0.00 0.00 63 1018.7
20181019012353 59 270 0.0 0.0 0.00 0.00 0.00 63 1018.7
20181019011710 59 270 0.0 0.0 0.00 0.00 0.00 62 1018.8
20181019011029 60 270 0.0 0.0 0.00 0.00 0.00 61 1018.9
20181019010346 60 270 0.0 0.0 0.00 0.00 0.00 61 1018.9
20181019005704 60 270 0.0 0.0 0.00 0.00 0.00 61 1018.8
20181019005021 61 270 0.0 0.0 0.00 0.00 0.00 61 1018.9
20181019004340 61 270 0.0 0.0 0.00 0.00 0.00 61 1018.8
20181019003657 62 270 0.0 0.0 0.00 0.00 0.00 60 1018.9
20181019003015 62 270 0.0 0.0 0.00 0.00 0.00 60 1019.0
20181019002332 63 270 0.0 0.0 0.00 0.00 0.00 58 1019.1
20181019001651 63 270 0.0 0.0 0.00 0.00 0.00 57 1018.9
20181019001008 64 270 0.0 0.0 0.00 0.00 0.00 56 1019.0
20181019000326 64 270 0.0 0.0 0.00 0.00 0.00 55 1019.2
20181018235002 65 270 0.0 0.0 0.00 0.00 0.00 54 1019.3
20181018234319 65 270 0.0 0.0 0.00 0.00 0.00 54 1019.1
20181018233637 66 270 0.0 0.0 0.00 0.00 0.00 53 1019.1
20181018232954 66 270 0.0 0.0 0.00 0.00 0.00 53 1019.0
20181018232313 66 270 0.0 0.0 0.00 0.00 0.00 53 1019.0
20181018231630 67 270 0.0 0.0 0.00 0.00 0.00 53 1019.1
20181018230948 67 270 0.0 0.0 0.00 0.00 0.00 53 1019.1
20181018230305 67 270 0.0 0.0 0.00 0.00 0.00 52 1019.5
20181018225624 68 270 0.0 0.0 0.00 0.00 0.00 52 1019.5
20181018224941 68 270 0.0 0.0 0.00 0.00 0.00 52 1019.4
20181018224259 68 270 0.0 0.0 0.00 0.00 0.00 52 1019.7
20181018223616 68 270 0.0 0.0 0.00 0.00 0.00 53 1019.7
20181018222935 67 270 0.0 0.0 0.00 0.00 0.00 53 1019.7
20181018222252 67 270 0.0 0.0 0.00 0.00 0.00 53 1019.9
20181018221610 67 270 0.0 0.0 0.00 0.00 0.00 52 1020.0
20181018220927 67 270 0.0 0.0 0.00 0.00 0.00 53 1020.0
20181018220246 67 270 0.0 0.0 0.00 0.00 0.00 53 1020.0
20181018215603 67 270 0.0 0.0 0.00 0.00 0.00 53 1020.1
20181018214921 68 270 0.0 0.0 0.00 0.00 0.00 53 1020.1
20181018214238 68 270 0.0 0.0 0.00 0.00 0.00 53 1020.2
20181018213557 68 270 0.0 0.0 0.00 0.00 0.00 51 1020.3
20181018212914 68 270 0.0 0.0 0.00 0.00 0.00 51 1020.3
20181018212232 69 270 0.0 0.0 0.00 0.00 0.00 51 1020.3
20181018211550 69 270 0.0 0.0 0.00 0.00 0.00 50 1020.1
20181018210908 70 270 0.0 0.0 0.00 0.00 0.00 49 1020.2
20181018210225 71 270 0.0 0.0 0.00 0.00 0.00 48 1020.2
20181018205543 71 270 0.0 0.0 0.00 0.00 0.00 47 1020.3
20181018204901 71 270 0.0 0.0 0.00 0.00 0.00 48 1020.5
20181018204219 71 270 0.0 0.0 0.00 0.00 0.00 47 1020.5
20181018203536 71 270 0.0 0.0 0.00 0.00 0.00 50 1020.7
20181018202854 70 270 0.0 0.0 0.00 0.00 0.00 50 1020.6
20181018202212 70 270 0.0 0.0 0.00 0.00 0.00 49 1021.0
20181018201530 70 270 0.0 0.0 0.00 0.00 0.00 49 1021.0
20181018200847 70 270 0.0 0.0 0.00 0.00 0.00 48 1021.1
20181018200205 70 270 0.0 0.0 0.00 0.00 0.00 47 1021.1
20181018195523 70 270 0.0 0.0 0.00 0.00 0.00 47 1021.3
20181018194841 70 270 0.0 0.0 0.00 0.00 0.00 48 1021.4
20181018194158 70 270 0.0 0.0 0.00 0.00 0.00 51 1021.6
20181018193516 70 270 0.0 0.0 0.00 0.00 0.00 51 1021.7
20181018192834 70 270 0.0 0.0 0.00 0.00 0.00 51 1021.6
20181018192152 69 270 0.0 0.0 0.00 0.00 0.00 51 1021.7
20181018191509 69 270 0.0 0.0 0.00 0.00 0.00 52 1021.9
20181018190827 69 270 0.0 0.0 0.00 0.00 0.00 52 1022.2
20181018190145 69 270 0.0 0.0 0.00 0.00 0.00 54 1022.3
20181018185503 69 270 0.0 0.0 0.00 0.00 0.00 54 1022.2
20181018184820 68 270 0.0 0.0 0.00 0.00 0.00 55 1022.4
20181018184138 68 270 0.0 0.0 0.00 0.00 0.00 56 1022.8
20181018183456 68 270 0.0 0.0 0.00 0.00 0.00 58 1022.9
20181018182814 67 270 0.0 0.0 0.00 0.00 0.00 58 1023.1
20181018182131 67 270 0.0 0.0 0.00 0.00 0.00 57 1023.3
20181018181449 67 270 0.0 0.0 0.00 0.00 0.00 58 1023.5
20181018180807 67 270 0.0 0.0 0.00 0.00 0.00 59 1023.5
20181018180125 66 270 0.0 0.0 0.00 0.00 0.00 61 1023.8
20181018175442 66 270 0.0 0.0 0.00 0.00 0.00 61 1023.9
20181018174801 65 270 0.0 0.0 0.00 0.00 0.00 62 1024.2
20181018174118 65 270 0.0 0.0 0.00 0.00 0.00 62 1024.1
20181018173436 64 270 0.0 0.0 0.00 0.00 0.00 64 1024.3
20181018172753 64 270 0.0 0.0 0.00 0.00 0.00 64 1024.4
20181018172112 64 270 0.0 0.0 0.00 0.00 0.00 64 1024.5
20181018171429 64 270 0.0 0.0 0.00 0.00 0.00 64 1024.7
20181018170747 63 270 0.0 0.0 0.00 0.00 0.00 67 1024.7
20181018170104 63 270 0.0 0.0 0.00 0.00 0.00 67 1024.9
20181018165423 62 270 0.0 0.0 0.00 0.00 0.00 66 1025.1
20181018164740 62 270 0.0 0.0 0.00 0.00 0.00 68 1025.2
20181018164058 62 270 0.0 0.0 0.00 0.00 0.00 69 1025.4
20181018163415 61 270 0.0 0.0 0.00 0.00 0.00 70 1025.3
20181018162734 60 270 0.0 0.0 0.00 0.00 0.00 71 1025.4
20181018162051 60 270 0.0 0.0 0.00 0.00 0.00 73 1025.6
20181018161409 59 270 0.0 0.0 0.00 0.00 0.00 75 1025.6
20181018160728 59 270 0.0 0.0 0.00 0.00 0.00 75 1025.7
20181018160045 58 270 0.0 0.0 0.00 0.00 0.00 75 1025.9
20181018155402 58 270 0.0 0.0 0.00 0.00 0.00 75 1025.9
20181018154720 57 270 0.0 0.0 0.00 0.00 0.00 77 1026.0
20181018154037 56 270 0.0 0.0 0.00 0.00 0.00 76 1025.7
20181018153356 56 270 0.0 0.0 0.00 0.00 0.00 76 1026.0
20181018152713 56 270 0.0 0.0 0.00 0.00 0.00 76 1026.0
20181018152031 56 270 0.0 0.0 0.00 0.00 0.00 75 1026.1
20181018151348 55 270 0.0 0.0 0.00 0.00 0.00 75 1026.1
20181018150707 55 270 0.0 0.0 0.00 0.00 0.00 77 1026.2
20181018150024 55 270 0.0 0.0 0.00 0.00 0.00 77 1026.1
20181018145342 54 270 0.0 0.0 0.00 0.00 0.00 79 1026.1
20181018144700 54 270 0.0 0.0 0.00 0.00 0.00 79 1026.0
20181018144018 53 270 0.0 0.0 0.00 0.00 0.00 80 1026.3
20181018143335 53 270 0.0 0.0 0.00 0.00 0.00 81 1026.4
20181018142653 53 270 0.0 0.0 0.00 0.00 0.00 81 1026.4
20181018142011 52 270 0.0 0.0 0.00 0.00 0.00 82 1026.2
20181018141329 52 270 0.0 0.0 0.00 0.00 0.00 83 1026.1
20181018140646 51 270 0.0 0.0 0.00 0.00 0.00 84 1026.1
20181018140004 51 270 0.0 0.0 0.00 0.00 0.00 84 1026.0
20181018135322 51 270 0.0 0.0 0.00 0.00 0.00 84 1025.9
20181018134640 51 270 0.0 0.0 0.00 0.00 0.00 84 1025.9
20181018133957 50 270 0.0 0.0 0.00 0.00 0.00 84 1025.9
20181018133315 50 270 0.0 0.0 0.00 0.00 0.00 85 1026.0
20181018132633 50 270 0.0 0.0 0.00 0.00 0.00 85 1026.0
20181018131951 50 270 0.0 0.0 0.00 0.00 0.00 85 1026.0
20181018131308 49 270 0.0 0.0 0.00 0.00 0.00 85 1026.0
20181018130626 49 270 0.0 0.0 0.00 0.00 0.00 86 1026.1
20181018125944 49 270 0.0 0.0 0.00 0.00 0.00 86 1025.9
20181018125302 49 270 0.0 0.0 0.00 0.00 0.00 86 1026.0
20181018124619 49 270 0.0 0.0 0.00 0.00 0.00 86 1026.1
20181018123937 49 270 0.0 0.0 0.00 0.00 0.00 86 1026.1
20181018123255 49 270 0.0 0.0 0.00 0.00 0.00 86 1026.1
20181018122613 49 270 0.0 0.0 0.00 0.00 0.00 86 1026.0
20181018121930 49 270 0.0 0.0 0.00 0.00 0.00 86 1026.0
20181018121248 48 270 0.0 0.0 0.00 0.00 0.00 86 1026.1
20181018120606 48 270 0.0 0.0 0.00 0.00 0.00 87 1026.1
20181018115924 48 270 0.0 0.0 0.00 0.00 0.00 87 1026.0
20181018115241 48 270 0.0 0.0 0.00 0.00 0.00 88 1025.9
20181018114559 48 270 0.0 0.0 0.00 0.00 0.00 88 1026.1
20181018113917 47 270 0.0 0.0 0.00 0.00 0.00 88 1026.0
20181018113235 47 270 0.0 0.0 0.00 0.00 0.00 88 1025.9
20181018112552 47 270 0.0 0.0 0.00 0.00 0.00 89 1026.1
20181018111910 47 270 0.0 0.0 0.00 0.00 0.00 89 1026.1
20181018111228 47 270 0.0 0.0 0.00 0.00 0.00 90 1026.1
20181018110546 47 270 0.0 0.0 0.00 0.00 0.00 90 1026.1
20181018105905 46 270 0.0 0.0 0.00 0.00 0.00 90 1026.0
20181018105221 46 270 0.0 0.0 0.00 0.00 0.00 91 1026.1
20181018104539 46 270 0.0 0.0 0.00 0.00 0.00 91 1026.0
20181018103857 46 270 0.0 0.0 0.00 0.00 0.00 91 1026.1
20181018103214 46 270 0.0 0.0 0.00 0.00 0.00 91 1026.1
20181018102532 46 270 0.0 0.0 0.00 0.00 0.00 91 1026.0
20181018101850 46 270 0.0 0.0 0.00 0.00 0.00 91 1026.1
20181018101208 45 270 0.0 0.0 0.00 0.00 0.00 91 1026.0
20181018100525 45 270 0.0 0.0 0.00 0.00 0.00 92 1026.0
20181018095843 45 270 0.0 0.0 0.00 0.00 0.00 92 1026.0
20181018095201 45 270 0.0 0.0 0.00 0.00 0.00 93 1025.9
20181018094519 44 270 0.0 0.0 0.00 0.00 0.00 92 1026.0
20181018093836 44 270 0.0 0.0 0.00 0.00 0.00 92 1026.0
20181018093154 44 270 0.0 0.0 0.00 0.00 0.00 91 1026.1
20181018092512 44 270 0.0 0.0 0.00 0.00 0.00 91 1026.1
20181018091147 44 270 0.0 0.0 0.00 0.00 0.00 92 1026.2
20181018090506 44 270 0.0 0.0 0.00 0.00 0.00 92 1026.2
20181018085823 44 270 0.0 0.0 0.00 0.00 0.00 92 1026.1
20181018085141 44 270 0.0 0.0 0.00 0.00 0.00 93 1026.4
20181018084458 44 270 0.0 0.0 0.00 0.00 0.00 93 1026.5
20181018083816 43 270 0.0 0.0 0.00 0.00 0.00 93 1026.5
20181018083134 43 270 0.0 0.0 0.00 0.00 0.00 93 1026.2
20181018082452 42 270 0.0 0.0 0.00 0.00 0.00 93 1026.3
20181018081809 41 270 0.0 0.0 0.00 0.00 0.00 91 1026.3
20181018081128 41 270 0.0 0.0 0.00 0.00 0.00 90 1026.4
20181018080445 41 270 0.0 0.0 0.00 0.00 0.00 89 1026.4
20181018075803 40 270 0.0 0.0 0.00 0.00 0.00 88 1026.5
20181018075120 40 270 0.0 0.0 0.00 0.00 0.00 88 1026.4
20181018074438 40 270 0.0 0.0 0.00 0.00 0.00 88 1026.5
20181018073756 41 270 0.0 0.0 0.00 0.00 0.00 88 1026.6
20181018073114 41 270 0.0 0.0 0.00 0.00 0.00 87 1026.6
20181018072431 41 270 0.0 0.0 0.00 0.00 0.00 87 1026.5
20181018071750 41 270 0.0 0.0 0.00 0.00 0.00 87 1026.4
20181018071107 41 270 0.0 0.0 0.00 0.00 0.00 87 1026.5
20181018070425 41 270 0.0 0.0 0.00 0.00 0.00 86 1026.3
20181018065742 41 270 0.0 0.0 0.00 0.00 0.00 86 1026.5
20181018065101 41 270 0.0 0.0 0.00 0.00 0.00 86 1026.5
20181018064418 42 270 0.0 0.0 0.00 0.00 0.00 86 1026.5
20181018063736 42 270 0.0 0.0 0.00 0.00 0.00 85 1026.6
20181018063053 42 270 0.0 0.0 0.00 0.00 0.00 84 1026.7
20181018062412 42 270 0.0 0.0 0.00 0.00 0.00 84 1026.7
20181018061729 42 270 0.0 0.0 0.00 0.00 0.00 84 1026.7
20181018061047 42 270 0.0 0.0 0.00 0.00 0.00 84 1026.8
20181018060404 42 270 0.0 0.0 0.00 0.00 0.00 83 1026.9
20181018055723 43 270 0.0 0.0 0.00 0.00 0.00 83 1026.8
20181018055040 43 270 0.0 0.0 0.00 0.00 0.00 83 1026.9
20181018054358 43 270 0.0 0.0 0.00 0.00 0.00 83 1026.9
20181018053715 43 270 0.0 0.0 0.00 0.00 0.00 82 1027.0
20181018053034 43 270 0.0 0.0 0.00 0.00 0.00 82 1027.1
20181018052351 44 270 0.0 0.0 0.00 0.00 0.00 82 1027.1
20181018051709 44 270 0.0 0.0 0.00 0.00 0.00 81 1027.3
20181018051026 44 270 0.0 0.0 0.00 0.00 0.00 81 1027.3
20181018050345 44 270 0.0 0.0 0.00 0.00 0.00 80 1027.4
20181018045702 44 270 0.0 0.0 0.00 0.00 0.00 80 1027.4
20181018045020 44 270 0.0 0.0 0.00 0.00 0.00 79 1027.3
20181018044337 44 270 0.0 0.0 0.00 0.00 0.00 80 1027.5
20181018043656 45 270 0.0 0.0 0.00 0.00 0.00 79 1027.6
20181018043013 45 270 0.0 0.0 0.00 0.00 0.00 79 1027.6
20181018042331 45 270 0.0 0.0 0.00 0.00 0.00 79 1027.7
20181018041648 45 270 0.0 0.0 0.00 0.00 0.00 79 1027.9
20181018041007 45 270 0.0 0.0 0.00 0.00 0.00 79 1027.9
20181018040324 46 270 0.0 0.0 0.00 0.00 0.00 79 1028.0
20181018035642 46 270 0.0 0.0 0.00 0.00 0.00 79 1028.0
20181018035000 46 270 0.0 0.0 0.00 0.00 0.00 79 1028.2
20181018034318 46 270 0.0 0.0 0.00 0.00 0.00 78 1028.1
20181018033635 46 270 0.0 0.0 0.00 0.00 0.00 77 1028.1
20181018032953 46 270 0.0 0.0 0.00 0.00 0.00 78 1028.1
20181018032310 46 270 0.0 0.0 0.00 0.00 0.00 77 1028.2
20181018031629 46 270 0.0 0.0 0.00 0.00 0.00 77 1028.3
20181018030946 46 270 0.0 0.0 0.00 0.00 0.00 76 1028.2